AIC787 VOBL-VCBI

Flight info

Callsign AIC787
Flight time 0h 58m
Altitude 35000
Route AKTIM8A AKTIM V45 TTR G325 IDIBI IDIBI1A
Aircraft B78X/H-SDE1E2E3FGHIJ2J3J4J5M1RWXY/LB1D1

Departure

Time 2026-04-28 16:06
Airport Kempegowda International Airport Bengaluru (VOBL)

Arrival

Time 2026-04-28 17:05
Airport Bandaranaike International Colombo Airport (VCBI)
Time Latitude Longitude Altitude Speed Heading
2026-04-28 15:28 13.20182 77.70795 2967 ft 0 kts 180°
2026-04-28 15:43 13.20184 77.70795 2967 ft 0 kts 180°
2026-04-28 15:43 13.20187 77.70795 2967 ft 1 kts 180°
2026-04-28 15:44 13.20192 77.70795 2967 ft 1 kts 182°
2026-04-28 15:44 13.20196 77.70796 2967 ft 1 kts 174°
2026-04-28 15:44 13.20201 77.70796 2967 ft 1 kts 168°
2026-04-28 15:44 13.20210 77.70794 2967 ft 1 kts 167°
2026-04-28 15:45 13.20220 77.70792 2967 ft 1 kts 167°
2026-04-28 15:45 13.20230 77.70790 2967 ft 2 kts 156°
2026-04-28 15:45 13.20239 77.70786 2967 ft 1 kts 145°
2026-04-28 15:45 13.20248 77.70780 2967 ft 2 kts 135°
2026-04-28 15:46 13.20255 77.70773 2967 ft 1 kts 124°
2026-04-28 15:46 13.20257 77.70771 2970 ft 0 kts 119°
2026-04-28 15:46 13.20258 77.70770 2970 ft 0 kts 113°
2026-04-28 15:52 13.20257 77.70772 2968 ft 0 kts 110°
2026-04-28 15:53 13.20257 77.70779 2967 ft 1 kts 100°
2026-04-28 15:53 13.20257 77.70791 2967 ft 3 kts 94°
2026-04-28 15:53 13.20256 77.70819 2966 ft 5 kts 88°
2026-04-28 15:53 13.20258 77.70863 2954 ft 7 kts 88°
2026-04-28 15:54 13.20260 77.70923 2958 ft 10 kts 88°
2026-04-28 15:54 13.20262 77.70999 2962 ft 12 kts 90°
2026-04-28 15:54 13.20261 77.71088 2960 ft 14 kts 90°
2026-04-28 15:54 13.20282 77.71167 2946 ft 9 kts 47°
2026-04-28 15:55 13.20316 77.71179 2946 ft 3 kts
2026-04-28 15:55 13.20342 77.71179 2946 ft 4 kts
2026-04-28 15:55 13.20378 77.71179 2951 ft 6 kts
2026-04-28 15:55 13.20427 77.71179 2957 ft 8 kts 360°
2026-04-28 15:56 13.20485 77.71187 2952 ft 8 kts 22°
2026-04-28 15:56 13.20519 77.71226 2946 ft 6 kts 65°
2026-04-28 15:56 13.20523 77.71273 2952 ft 9 kts 89°
2026-04-28 15:56 13.20523 77.71350 2948 ft 13 kts 90°
2026-04-28 15:57 13.20522 77.71463 2945 ft 18 kts 91°
2026-04-28 15:57 13.20520 77.71606 2942 ft 22 kts 90°
2026-04-28 15:57 13.20519 77.71775 2938 ft 26 kts 90°
2026-04-28 15:57 13.20517 77.71970 2934 ft 28 kts 90°
2026-04-28 15:58 13.20516 77.72164 2930 ft 25 kts 90°
2026-04-28 15:58 13.20558 77.72272 2925 ft 6 kts 27°
2026-04-28 15:58 13.20574 77.72276 2927 ft 0 kts 14°
2026-04-28 16:00 13.20580 77.72278 2928 ft 2 kts 12°
2026-04-28 16:00 13.20599 77.72281 2927 ft 4 kts
2026-04-28 16:00 13.20626 77.72280 2928 ft 4 kts 352°
2026-04-28 16:01 13.20649 77.72270 2925 ft 3 kts 333°
2026-04-28 16:01 13.20664 77.72259 2925 ft 3 kts 317°
2026-04-28 16:01 13.20676 77.72238 2932 ft 4 kts 300°
2026-04-28 16:01 13.20687 77.72211 2932 ft 2 kts 281°
2026-04-28 16:02 13.20687 77.72208 2931 ft 0 kts 275°
2026-04-28 16:02 13.20687 77.72192 2929 ft 5 kts 272°
2026-04-28 16:03 13.20689 77.72131 2938 ft 9 kts 270°
2026-04-28 16:03 13.20690 77.72033 2940 ft 25 kts 271°
2026-04-28 16:03 13.20695 77.71559 2951 ft 110 kts 270°
2026-04-28 16:03 13.20718 77.70499 3005 ft 179 kts 273°
2026-04-28 16:04 13.20857 77.69119 3386 ft 208 kts 279°
2026-04-28 16:04 13.21163 77.67535 3525 ft 241 kts 285°
2026-04-28 16:04 13.21972 77.66030 3533 ft 249 kts 312°
2026-04-28 16:04 13.23145 77.64735 3507 ft 248 kts 313°
2026-04-28 16:05 13.24161 77.63302 3498 ft 248 kts 303°
2026-04-28 16:05 13.24993 77.61747 3499 ft 249 kts 299°
2026-04-28 16:05 13.25792 77.60195 3506 ft 248 kts 300°
2026-04-28 16:05 13.26645 77.58650 3511 ft 248 kts 302°
2026-04-28 16:06 13.27511 77.57121 3506 ft 249 kts 302°
2026-04-28 16:06 13.28375 77.55581 3486 ft 248 kts 301°
2026-04-28 16:06 13.29234 77.54031 3525 ft 251 kts 301°
2026-04-28 16:06 13.29757 77.52337 3963 ft 255 kts 274°
2026-04-28 16:07 13.29397 77.50554 5108 ft 261 kts 244°
2026-04-28 16:07 13.28163 77.49165 6269 ft 270 kts 218°
2026-04-28 16:07 13.24861 77.47190 8671 ft 279 kts 211°
2026-04-28 16:08 13.23149 77.46216 9780 ft 285 kts 212°
2026-04-28 16:08 13.21411 77.45172 10686 ft 298 kts 213°
2026-04-28 16:08 13.19535 77.44033 11005 ft 331 kts 213°
2026-04-28 16:09 13.14840 77.42651 10953 ft 368 kts 180°
2026-04-28 16:09 13.12325 77.43152 10952 ft 370 kts 162°
2026-04-28 16:09 13.10093 77.44399 10949 ft 372 kts 145°
2026-04-28 16:10 13.07110 77.48709 10954 ft 373 kts 113°
2026-04-28 16:10 13.06284 77.51233 10987 ft 374 kts 110°
2026-04-28 16:10 13.04058 77.55987 10999 ft 373 kts 123°
2026-04-28 16:11 13.01099 77.60351 11009 ft 373 kts 132°
2026-04-28 16:11 12.97740 77.64403 10982 ft 373 kts 131°
2026-04-28 16:12 12.93602 77.67426 11102 ft 371 kts 167°
2026-04-28 16:12 12.91036 77.67651 11555 ft 373 kts 186°
2026-04-28 16:13 12.85795 77.67234 13628 ft 382 kts 188°
2026-04-28 16:13 12.83122 77.66963 14596 ft 388 kts 188°
2026-04-28 16:13 12.77702 77.66497 16383 ft 399 kts 187°
2026-04-28 16:14 12.72102 77.65996 18001 ft 409 kts 187°
2026-04-28 16:14 12.66349 77.65486 19538 ft 419 kts 187°
2026-04-28 16:15 12.60471 77.64965 20951 ft 428 kts 187°
2026-04-28 16:15 12.57529 77.64704 21592 ft 432 kts 187°
2026-04-28 16:15 12.54518 77.64436 22219 ft 436 kts 188°
2026-04-28 16:16 12.48435 77.63645 23402 ft 444 kts 188°
2026-04-28 16:16 12.45355 77.63287 23971 ft 448 kts 189°
2026-04-28 16:17 12.39146 77.62459 25323 ft 447 kts 189°
2026-04-28 16:17 12.36066 77.62065 26066 ft 445 kts 189°
2026-04-28 16:17 12.32993 77.61680 26789 ft 443 kts 189°
2026-04-28 16:17 12.29968 77.61292 27492 ft 441 kts 189°
2026-04-28 16:18 12.26934 77.60897 28185 ft 439 kts 189°
2026-04-28 16:18 12.23910 77.60508 28858 ft 437 kts 189°
2026-04-28 16:18 12.20879 77.60121 29522 ft 436 kts 189°
2026-04-28 16:18 12.17883 77.59736 30166 ft 434 kts 189°
2026-04-28 16:19 12.14883 77.59350 30773 ft 433 kts 189°
2026-04-28 16:19 12.11890 77.58964 31296 ft 433 kts 189°
2026-04-28 16:19 12.08865 77.58866 31760 ft 436 kts 176°
2026-04-28 16:19 12.05927 77.59435 32195 ft 439 kts 164°
2026-04-28 16:20 12.03105 77.60660 32634 ft 441 kts 152°
2026-04-28 16:20 12.00584 77.62451 33041 ft 445 kts 142°
2026-04-28 16:20 11.98281 77.64571 33438 ft 447 kts 139°
2026-04-28 16:20 11.96055 77.66797 33823 ft 449 kts 138°
2026-04-28 16:21 11.93804 77.69017 34198 ft 451 kts 140°
2026-04-28 16:21 11.91443 77.71132 34564 ft 452 kts 143°
2026-04-28 16:21 11.88989 77.73161 34883 ft 454 kts 143°
2026-04-28 16:21 11.86544 77.75250 34983 ft 460 kts 141°
2026-04-28 16:22 11.81769 77.79512 35002 ft 456 kts 142°
2026-04-28 16:22 11.76926 77.83691 34978 ft 455 kts 142°
2026-04-28 16:23 11.72150 77.87881 35004 ft 455 kts 142°
2026-04-28 16:23 11.67326 77.92076 35005 ft 455 kts 142°
2026-04-28 16:24 11.62512 77.96278 34980 ft 455 kts 142°
2026-04-28 16:24 11.58559 77.99822 34985 ft 455 kts 141°
2026-04-28 16:25 11.53785 78.04089 34982 ft 455 kts 141°
2026-04-28 16:25 11.49020 78.08336 35000 ft 455 kts 141°
2026-04-28 16:26 11.44278 78.12570 34984 ft 455 kts 141°
2026-04-28 16:26 11.39502 78.16824 34982 ft 455 kts 141°
2026-04-28 16:27 11.34749 78.21061 35006 ft 455 kts 141°
2026-04-28 16:28 11.27585 78.27440 35006 ft 455 kts 141°
2026-04-28 16:28 11.22814 78.31687 34985 ft 455 kts 141°
2026-04-28 16:29 11.15681 78.38031 34984 ft 455 kts 141°
2026-04-28 16:30 11.08526 78.44391 34984 ft 455 kts 141°
2026-04-28 16:30 11.03749 78.48636 34983 ft 455 kts 141°
2026-04-28 16:31 10.98972 78.52877 35008 ft 455 kts 141°
2026-04-28 16:31 10.94193 78.57120 34986 ft 455 kts 141°
2026-04-28 16:32 10.89447 78.61331 34981 ft 455 kts 141°
2026-04-28 16:32 10.82290 78.67677 34980 ft 455 kts 141°
2026-04-28 16:33 10.78281 78.71164 35029 ft 454 kts 148°
2026-04-28 16:33 10.74546 78.73184 35121 ft 458 kts 165°
2026-04-28 16:33 10.71564 78.74153 35041 ft 458 kts 165°
2026-04-28 16:34 10.65417 78.76081 35000 ft 467 kts 166°
2026-04-28 16:34 10.59117 78.78045 35004 ft 484 kts 165°
2026-04-28 16:35 10.52634 78.80081 34987 ft 484 kts 165°
2026-04-28 16:35 10.46221 78.82084 34981 ft 485 kts 165°
2026-04-28 16:36 10.39777 78.84102 34983 ft 485 kts 165°
2026-04-28 16:36 10.33329 78.86117 35001 ft 484 kts 165°
2026-04-28 16:37 10.26884 78.88132 35003 ft 484 kts 165°
2026-04-28 16:38 10.17209 78.91154 35003 ft 484 kts 165°
2026-04-28 16:38 10.10825 78.93148 35004 ft 484 kts 165°
2026-04-28 16:39 10.04362 78.95165 34985 ft 484 kts 165°
2026-04-28 16:39 9.97923 78.97173 34980 ft 484 kts 165°
2026-04-28 16:40 9.91477 78.99183 34983 ft 484 kts 165°
2026-04-28 16:40 9.85024 79.01194 35002 ft 484 kts 165°
2026-04-28 16:41 9.78625 79.03188 34999 ft 484 kts 165°
2026-04-28 16:41 9.72179 79.05196 34984 ft 484 kts 165°
2026-04-28 16:42 9.65737 79.07202 34979 ft 484 kts 165°
2026-04-28 16:42 9.59297 79.09206 34985 ft 484 kts 165°
2026-04-28 16:43 9.52857 79.11209 35004 ft 484 kts 165°
2026-04-28 16:43 9.46455 79.13210 35000 ft 484 kts 165°
2026-04-28 16:44 9.40050 79.15287 34983 ft 484 kts 165°
2026-04-28 16:44 9.33623 79.17332 34978 ft 484 kts 165°
2026-04-28 16:45 9.27198 79.19395 34984 ft 484 kts 165°
2026-04-28 16:45 9.20785 79.21444 34995 ft 483 kts 165°
2026-04-28 16:46 9.14365 79.23498 35004 ft 483 kts 165°
2026-04-28 16:46 9.07944 79.25551 34986 ft 483 kts 165°
2026-04-28 16:47 9.01558 79.27592 34979 ft 484 kts 165°
2026-04-28 16:47 8.95144 79.29641 34982 ft 484 kts 165°
2026-04-28 16:48 8.88720 79.31692 34995 ft 483 kts 165°
2026-04-28 16:48 8.82294 79.33743 35004 ft 483 kts 165°
2026-04-28 16:49 8.75872 79.35794 34986 ft 483 kts 164°
2026-04-28 16:49 8.72774 79.37112 34970 ft 484 kts 153°
2026-04-28 16:49 8.69929 79.38862 34980 ft 484 kts 149°
2026-04-28 16:50 8.64342 79.42666 34998 ft 484 kts 149°
2026-04-28 16:50 8.58646 79.46311 35003 ft 484 kts 150°
2026-04-28 16:51 8.52993 79.50022 34965 ft 483 kts 149°
2026-04-28 16:51 8.50181 79.51855 34642 ft 482 kts 150°
2026-04-28 16:51 8.47279 79.53560 34346 ft 480 kts 158°
2026-04-28 16:51 8.44160 79.54720 33996 ft 479 kts 165°
2026-04-28 16:52 8.40962 79.55759 33534 ft 482 kts 165°
2026-04-28 16:52 8.37793 79.56762 33066 ft 484 kts 165°
2026-04-28 16:52 8.34565 79.57778 32597 ft 486 kts 165°
2026-04-28 16:52 8.31336 79.58808 32140 ft 488 kts 165°
2026-04-28 16:53 8.28091 79.59848 31652 ft 489 kts 165°
2026-04-28 16:53 8.24837 79.60884 31183 ft 491 kts 165°
2026-04-28 16:53 8.21581 79.61916 30685 ft 492 kts 165°
2026-04-28 16:53 8.18309 79.62957 30168 ft 493 kts 165°
2026-04-28 16:54 8.15026 79.64003 29637 ft 494 kts 165°
2026-04-28 16:54 8.11748 79.65047 29089 ft 495 kts 165°
2026-04-28 16:54 8.08469 79.66093 28753 ft 492 kts 165°
2026-04-28 16:54 8.06308 79.66782 28533 ft 490 kts 165°
2026-04-28 16:55 8.02010 79.68259 28035 ft 487 kts 159°
2026-04-28 16:55 7.99074 79.69853 27670 ft 486 kts 149°
2026-04-28 16:55 7.96392 79.71907 27322 ft 484 kts 142°
2026-04-28 16:55 7.93880 79.74150 26995 ft 481 kts 140°
2026-04-28 16:56 7.91451 79.76452 26674 ft 478 kts 139°
2026-04-28 16:56 7.89041 79.78750 26369 ft 474 kts 139°
2026-04-28 16:56 7.86613 79.81002 26117 ft 471 kts 141°
2026-04-28 16:56 7.84148 79.83139 26039 ft 463 kts 142°
2026-04-28 16:57 7.81689 79.85244 25535 ft 466 kts 142°
2026-04-28 16:57 7.79283 79.87445 24774 ft 462 kts 138°
2026-04-28 16:57 7.77017 79.89659 24045 ft 457 kts 139°
2026-04-28 16:57 7.74721 79.91841 23325 ft 451 kts 140°
2026-04-28 16:58 7.72448 79.93974 22600 ft 445 kts 139°
2026-04-28 16:58 7.70199 79.96110 21850 ft 440 kts 139°
2026-04-28 16:58 7.67988 79.98227 21126 ft 435 kts 139°
2026-04-28 16:58 7.65798 80.00298 20417 ft 429 kts 141°
2026-04-28 16:59 7.63367 80.01991 19736 ft 421 kts 155°
2026-04-28 16:59 7.60636 80.03035 18873 ft 420 kts 169°
2026-04-28 16:59 7.57750 80.03411 17715 ft 422 kts 182°
2026-04-28 16:59 7.54785 80.03354 16219 ft 431 kts 184°
2026-04-28 17:00 7.51754 80.03286 14722 ft 439 kts 184°
2026-04-28 17:00 7.48705 80.03222 13184 ft 426 kts 184°
2026-04-28 17:00 7.45875 80.03180 11671 ft 400 kts 183°
2026-04-28 17:00 7.43159 80.03146 10140 ft 380 kts 183°
2026-04-28 17:01 7.40581 80.03098 8636 ft 363 kts 184°
2026-04-28 17:01 7.38105 80.02903 7178 ft 350 kts 195°
2026-04-28 17:01 7.35904 80.02001 5578 ft 339 kts 214°
2026-04-28 17:01 7.34031 80.00595 3630 ft 335 kts 219°
2026-04-28 17:02 7.32156 79.99235 2621 ft 315 kts 216°
2026-04-28 17:02 7.30993 79.98460 2628 ft 289 kts 217°
2026-04-28 17:02 7.29044 79.96979 2417 ft 245 kts 221°
2026-04-28 17:02 7.27771 79.95954 2105 ft 224 kts 221°
2026-04-28 17:03 7.25497 79.94163 1567 ft 194 kts 220°
2026-04-28 17:03 7.24466 79.93353 1299 ft 183 kts 218°
2026-04-28 17:03 7.23517 79.92544 1020 ft 171 kts 220°
2026-04-28 17:04 7.21779 79.91152 530 ft 157 kts 215°
2026-04-28 17:04 7.20908 79.90515 409 ft 157 kts 217°
2026-04-28 17:05 7.19158 79.89179 67 ft 153 kts 217°
2026-04-28 17:05 7.18389 79.88610 41 ft 105 kts 218°
2026-04-28 17:05 7.18075 79.88359 42 ft 17 kts 219°
2026-04-28 17:06 7.18022 79.88316 42 ft 12 kts 218°
2026-04-28 17:06 7.17928 79.88248 42 ft 18 kts 209°
2026-04-28 17:06 7.17860 79.88253 43 ft 0 kts 140°
2026-04-28 17:09 7.17859 79.88253 43 ft 1 kts 139°
2026-04-28 17:09 7.17841 79.88269 43 ft 11 kts 139°
2026-04-28 17:09 7.17790 79.88313 42 ft 6 kts 147°
2026-04-28 17:10 7.17752 79.88325 41 ft 5 kts 171°
2026-04-28 17:10 7.17739 79.88320 41 ft 0 kts 207°
2026-04-28 17:10 7.17733 79.88316 41 ft 2 kts 211°
2026-04-28 17:10 7.17714 79.88303 41 ft 5 kts 214°
2026-04-28 17:11 7.17681 79.88279 41 ft 3 kts 216°
2026-04-28 17:11 7.17659 79.88267 41 ft 5 kts 207°
2026-04-28 17:11 7.17654 79.88264 41 ft 5 kts 210°
2026-04-28 17:11 7.17716 79.88306 41 ft 16 kts 218°
2026-04-28 17:12 7.17835 79.88403 38 ft 28 kts 219°
2026-04-28 17:12 7.17913 79.88466 37 ft 0 kts 230°
2026-04-28 17:12 7.17907 79.88461 38 ft 4 kts 223°
2026-04-28 17:12 7.17870 79.88450 38 ft 7 kts 184°
2026-04-28 17:13 7.17812 79.88483 41 ft 9 kts 135°
2026-04-28 17:13 7.17787 79.88511 41 ft 7 kts 126°
2026-04-28 17:13 7.17771 79.88526 41 ft 1 kts 151°
2026-04-28 17:13 7.17754 79.88527 41 ft 3 kts 181°
2026-04-28 17:14 7.17736 79.88523 41 ft 5 kts 197°
2026-04-28 17:14 7.17712 79.88507 40 ft 1 kts 212°
2026-04-28 17:14 7.17711 79.88506 40 ft 1 kts 218°
2026-04-28 17:14 7.17701 79.88497 41 ft 2 kts 219°
2026-04-28 17:15 7.17700 79.88497 41 ft 0 kts 219°